TimeEDT,TemperatureF,Dew PointF,Humidity,Sea Level PressureIn,VisibilityMPH,Wind Direction,Wind SpeedMPH,Gust SpeedMPH,PrecipitationIn,Events,Conditions,WindDirDegrees,DateUTC
12:18 AM,44.6,42.8,93,29.94,10.0,Calm,Calm,-,N/A,,Clear,0,2012-10-17 04:18:00
12:42 AM,44.6,44.6,100,29.94,10.0,Calm,Calm,-,N/A,,Clear,0,2012-10-17 04:42:00
1:03 AM,44.6,42.8,93,29.95,10.0,Calm,Calm,-,N/A,,Clear,0,2012-10-17 05:03:00
1:24 AM,44.6,42.8,93,29.95,10.0,North,4.6,-,N/A,,Clear,360,2012-10-17 05:24:00
2:27 AM,44.6,42.8,93,29.97,10.0,Calm,Calm,-,N/A,,Clear,0,2012-10-17 06:27:00
2:48 AM,44.6,42.8,93,29.97,10.0,Calm,Calm,-,N/A,,Clear,0,2012-10-17 06:48:00
3:09 AM,44.6,42.8,93,29.97,10.0,Calm,Calm,-,N/A,,Clear,0,2012-10-17 07:09:00
3:30 AM,44.6,42.8,93,29.97,7.0,Calm,Calm,-,N/A,,Clear,0,2012-10-17 07:30:00
4:15 AM,42.8,42.8,100,29.97,7.0,Calm,Calm,-,N/A,,Clear,0,2012-10-17 08:15:00
4:36 AM,42.8,42.8,100,29.98,7.0,Calm,Calm,-,N/A,,Clear,0,2012-10-17 08:36:00
5:33 AM,42.8,41.0,93,29.98,10.0,Calm,Calm,-,N/A,,Clear,0,2012-10-17 09:33:00
5:50 AM,44.6,42.8,93,29.98,7.0,WNW,3.5,-,N/A,,Clear,300,2012-10-17 09:50:00
6:50 AM,42.8,41.0,93,29.99,7.0,Calm,Calm,-,N/A,,Scattered Clouds,0,2012-10-17 10:50:00
7:45 AM,42.8,41.0,93,30.01,7.0,Calm,Calm,-,N/A,,Scattered Clouds,0,2012-10-17 11:45:00
8:50 AM,48.2,44.6,87,30.03,7.0,Calm,Calm,-,N/A,,Scattered Clouds,0,2012-10-17 12:50:00
9:55 AM,53.6,46.4,77,30.04,7.0,Calm,Calm,-,N/A,,Mostly Cloudy,0,2012-10-17 13:55:00
10:45 AM,57.2,44.6,63,30.05,7.0,Calm,Calm,-,N/A,,Mostly Cloudy,0,2012-10-17 14:45:00
11:45 AM,59.0,50.0,72,30.04,7.0,SE,5.8,-,N/A,,Mostly Cloudy,140,2012-10-17 15:45:00
12:54 PM,60.8,50.0,68,30.02,7.0,ESE,5.8,-,N/A,,Scattered Clouds,120,2012-10-17 16:54:00
1:45 PM,62.6,50.0,63,29.99,10.0,ESE,6.9,-,N/A,,Scattered Clouds,120,2012-10-17 17:45:00
2:54 PM,62.6,50.0,63,29.97,10.0,SE,9.2,-,N/A,,Scattered Clouds,130,2012-10-17 18:54:00
3:45 PM,64.4,48.2,56,29.97,10.0,SE,6.9,-,N/A,,Scattered Clouds,140,2012-10-17 19:45:00
5:45 PM,62.6,50.0,63,-9999,10.0,ESE,8.1,-,N/A,,Scattered Clouds,120,2012-10-17 21:45:00
6:50 PM,59.0,50.0,72,29.96,10.0,ESE,5.8,-,N/A,,Scattered Clouds,110,2012-10-17 22:50:00
7:50 PM,55.4,50.0,82,29.97,10.0,Calm,Calm,-,N/A,,Scattered Clouds,0,2012-10-17 23:50:00
9:45 PM,51.8,50.0,94,29.98,10.0,Calm,Calm,-,N/A,,Scattered Clouds,0,2012-10-18 01:45:00
10:18 PM,57.2,53.6,88,29.98,10.0,SE,6.9,-,N/A,,Clear,130,2012-10-18 02:18:00
10:39 PM,53.6,50.0,88,29.98,10.0,Calm,Calm,-,N/A,,Clear,0,2012-10-18 02:39:00
11:00 PM,50.0,50.0,100,29.98,7.0,Calm,Calm,-,N/A,,Clear,0,2012-10-18 03:00:00
11:21 PM,51.8,51.8,100,29.97,7.0,NE,3.5,-,N/A,,Clear,50,2012-10-18 03:21:00
11:45 PM,50.0,50.0,100,29.97,7.0,Calm,Calm,-,N/A,,Clear,0,2012-10-18 03:45:00